Maastricht, Netherlands

6:26 PM CET on February 12, 2016 (GMT +0100)
Maastricht-Aachen

Weather History for EHBK - February, 2014

Change the Weather History Date:

Monday, February 24, 2014

  Actual Average Record
Temperature  
Mean Temperature 48 °F -  
Max Temperature 57 °F 47 °F 57 °F (2003)
Min Temperature 40 °F 34 °F 24 °F (2001)
Degree Days  
Heating Degree Days 16    
Moisture  
Dew Point 36 °F    
Average Humidity 60    
Maximum Humidity 81    
Minimum Humidity 35    
Precipitation  
Precipitation 0.00 in 0.08 in - ()
Sea Level Pressure  
Sea Level Pressure 29.91 in    
Wind  
Wind Speed 9 mph ()    
Max Wind Speed 18 mph    
Max Gust Speed -    
Visibility 7.6 miles    
Events      
Averages and records for this station are not official NWS values.
T = Trace of Precipitation, MM = Missing Value Source: Averaged Metar Reports

Daily Weather History Graph

Daily Weather History Graph

Search for Another Location

Airport or City:

Trip Planner

Search our weather history database for the weather conditions in past years. The results will help you decide how hot, cold, wet, or windy it might be!

Date:

Astronomy

Feb. 24, 2014 Rise Set
Actual Time 7:32 AM CET 6:08 PM CET
Civil Twilight 6:58 AM CET 6:42 PM CET
Nautical Twilight 6:20 AM CET 7:20 PM CET
Astronomical Twilight 5:42 AM CET 7:58 PM CET
Moon 3:35 AM CET (2/24) 12:32 PM CET (2/24)
Length of Visible Light 11h 43m
Length of Day
10h 36m
Waning Crescent, 31% of the Moon is Illuminated
Feb 24
Waning Crescent
Mar 1
New
Mar 8
First Quarter
Mar 16
Full
Mar 24
Last Quarter

Hourly Weather History & Observations

Time (CET) Temp. Windchill Dew Point Humidity Pressure Visibility Wind Dir Wind Speed Gust Speed Precip Events Conditions
12:00 AM 42 °F - 38 °F 79% 30.06 in 12 mi SSE 6.7 mph - -  
12:25 AM 42.8 °F 38.0 °F 37.4 °F 81% 30.01 in 6.2 mi SSE 8.1 mph - N/A   Unknown
12:55 AM 42.8 °F 38.0 °F 37.4 °F 81% 30.01 in 6.2 mi SSE 8.1 mph - N/A   Unknown
1:00 AM 43 °F - 37 °F 74% 30.04 in 14 mi SSE 6.7 mph - -   Partly Cloudy
1:25 AM 42.8 °F 39.3 °F 37.4 °F 81% 30.01 in 6.2 mi SSE 5.8 mph - N/A   Unknown
1:55 AM 42.8 °F 37.5 °F 37.4 °F 81% 30.01 in 6.2 mi South 9.2 mph - N/A   Unknown
2:00 AM 43 °F - 36 °F 70% 30.01 in 19 mi South 8.9 mph - -  
2:25 AM 42.8 °F 38.0 °F 35.6 °F 76% 29.98 in 6.2 mi SSE 8.1 mph - N/A   Unknown
2:55 AM 42.8 °F 38.6 °F 35.6 °F 76% 29.98 in 6.2 mi SSE 6.9 mph - N/A   Unknown
3:00 AM 43 °F - 36 °F 67% 30.00 in 19 mi SSE 6.7 mph - -  
3:25 AM 42.8 °F 38.0 °F 35.6 °F 76% 29.98 in 6.2 mi SE 8.1 mph - N/A   Unknown
3:55 AM 42.8 °F 37.0 °F 35.6 °F 76% 29.95 in 6.2 mi SSE 10.4 mph - N/A   Unknown
4:00 AM 42 °F - 35 °F 68% 29.97 in 25 mi South 11.2 mph - -  
4:25 AM 42.8 °F 37.5 °F 35.6 °F 76% 29.95 in 6.2 mi SSE 9.2 mph - N/A   Unknown
4:55 AM 41.0 °F 35.2 °F 33.8 °F 76% 29.95 in 6.2 mi SSE 9.2 mph - N/A   Unknown
5:00 AM 42 °F - 35 °F 67% 29.96 in 28 mi SSE 8.9 mph - -  
5:25 AM 41.0 °F 37.1 °F 33.8 °F 76% 29.92 in 6.2 mi SSE 5.8 mph - N/A   Unknown
5:55 AM 42.8 °F 41.1 °F 33.8 °F 70% 29.92 in 6.2 mi South 3.5 mph - N/A   Unknown
6:00 AM 41 °F - 34 °F 67% 29.95 in 28 mi ESE 4.5 mph - -   Scattered Clouds
6:25 AM 42.8 °F 39.3 °F 33.8 °F 70% 29.92 in 6.2 mi ESE 5.8 mph - N/A   Unknown
6:55 AM 41.0 °F 35.2 °F 33.8 °F 76% 29.92 in 6.2 mi SE 9.2 mph - N/A   Unknown
7:00 AM 41 °F - 34 °F 66% 29.94 in 28 mi SE 8.9 mph - -   Partly Cloudy
7:25 AM 42.8 °F 38.0 °F 33.8 °F 70% 29.92 in 6.2 mi SSE 8.1 mph - N/A   Unknown
7:55 AM 41.0 °F 37.1 °F 33.8 °F 76% 29.92 in 6.2 mi SE 5.8 mph - N/A   Unknown
8:00 AM 42 °F - 33 °F 62% 29.94 in 25 mi SE 6.7 mph - -   Scattered Clouds
8:25 AM 42.8 °F 38.0 °F 33.8 °F 70% 29.92 in 6.2 mi SE 8.1 mph - N/A   Unknown
8:55 AM 44.6 °F 41.4 °F 33.8 °F 66% 29.92 in 6.2 mi SE 5.8 mph - N/A   Unknown
9:00 AM 46 °F - 34 °F 52% 29.95 in 22 mi SE 4.5 mph - -  
9:25 AM 46.4 °F 43.5 °F 35.6 °F 66% 29.92 in 6.2 mi SE 5.8 mph - N/A   Unknown
9:55 AM 48.2 °F - 37.4 °F 66% 29.92 in 6.2 mi South 10.4 mph - N/A   Unknown
10:00 AM 49 °F - 36 °F 49% 29.93 in 22 mi South 8.9 mph - -  
10:25 AM 50.0 °F - 35.6 °F 58% 29.89 in 6.2 mi South 12.7 mph - N/A   Unknown
10:55 AM 50.0 °F - 35.6 °F 58% 29.89 in 6.2 mi South 12.7 mph - N/A   Unknown
11:00 AM 51 °F - 36 °F 44% 29.92 in 22 mi South 15.7 mph - -  
11:25 AM 51.8 °F - 35.6 °F 54% 29.89 in 6.2 mi South 13.8 mph - N/A   Unknown
11:55 AM 53.6 °F - 37.4 °F 54% 29.89 in 6.2 mi South 13.8 mph - N/A   Unknown
12:00 PM 54 °F - 35 °F 37% 29.91 in 17 mi South 13.4 mph - -  
12:25 PM 53.6 °F - 35.6 °F 51% 29.89 in 6.2 mi South 12.7 mph - N/A   Unknown
12:55 PM 55.4 °F - 37.4 °F 51% 29.89 in 6.2 mi South 13.8 mph - N/A   Unknown
1:00 PM 55 °F - 36 °F 36% 29.90 in 19 mi SSW 13.4 mph - -   Partly Cloudy
1:25 PM 55.4 °F - 35.6 °F 47% 29.89 in 6.2 mi SSW 15.0 mph - N/A   Unknown
1:55 PM 55.4 °F - 35.6 °F 47% 29.86 in 6.2 mi SSW 18.4 mph - N/A   Unknown
2:00 PM 56 °F - 36 °F 35% 29.89 in 22 mi SSW 15.7 mph - -  
2:25 PM 55.4 °F - 37.4 °F 51% 29.86 in 6.2 mi SSW 18.4 mph - N/A   Unknown
2:55 PM 55.4 °F - 37.4 °F 51% 29.86 in 6.2 mi SSW 15.0 mph - N/A   Unknown
3:00 PM 56 °F - 37 °F 38% 29.88 in 19 mi SSW 13.4 mph - -  
3:25 PM 57.2 °F - 35.6 °F 44% 29.86 in 6.2 mi SSW 13.8 mph - N/A   Unknown
3:55 PM 57.2 °F - 35.6 °F 44% 29.86 in 6.2 mi SSW 16.1 mph - N/A   Unknown
4:00 PM 57 °F - 37 °F 35% 29.88 in 22 mi SSW 15.7 mph - -   Scattered Clouds
4:25 PM 57.2 °F - 37.4 °F 48% 29.86 in 6.2 mi SSW 15.0 mph - N/A   Unknown
4:55 PM 55.4 °F - 37.4 °F 51% 29.86 in 6.2 mi SSW 11.5 mph - N/A   Unknown
5:00 PM 55 °F - 37 °F 38% 29.88 in 28 mi South 11.2 mph - -   Scattered Clouds
5:25 PM 53.6 °F - 37.4 °F 54% 29.86 in 6.2 mi South 8.1 mph - N/A   Unknown
5:55 PM 53.6 °F - 35.6 °F 51% 29.86 in 6.2 mi South 9.2 mph - N/A   Unknown
6:00 PM 53 °F - 37 °F 42% 29.88 in 25 mi South 8.9 mph - -  
6:25 PM 51.8 °F - 37.4 °F 58% 29.86 in 6.2 mi South 8.1 mph - N/A   Unknown
6:55 PM 51.8 °F - 37.4 °F 58% 29.86 in 6.2 mi South 9.2 mph - N/A   Unknown
7:00 PM 51 °F - 36 °F 46% 29.90 in 28 mi South 8.9 mph - -   Partly Cloudy
7:25 PM 50.0 °F - 37.4 °F 62% 29.86 in 6.2 mi South 9.2 mph - N/A   Unknown
7:55 PM 50.0 °F - 37.4 °F 62% 29.86 in 6.2 mi South 10.4 mph - N/A   Unknown
8:00 PM 50 °F - 36 °F 49% 29.90 in 28 mi South 8.9 mph - -   Overcast
8:25 PM 50.0 °F - 37.4 °F 62% 29.86 in 6.2 mi South 9.2 mph - N/A   Unknown
8:55 PM 50.0 °F - 35.6 °F 58% 29.86 in 6.2 mi South 11.5 mph - N/A   Unknown
9:00 PM 50 °F - 36 °F 48% 29.89 in 28 mi South 11.2 mph - -   Partly Cloudy
9:25 PM 48.2 °F - 35.6 °F 62% 29.86 in 6.2 mi SSW 10.4 mph - N/A   Unknown
9:55 PM 50.0 °F - 35.6 °F 58% 29.86 in 6.2 mi South 11.5 mph - N/A   Unknown
10:00 PM 49 °F - 36 °F 51% 29.89 in 28 mi South 11.2 mph - -  
10:25 PM 48.2 °F - 35.6 °F 62% 29.86 in 6.2 mi South 9.2 mph - N/A   Unknown
10:55 PM 48.2 °F - 37.4 °F 66% 29.86 in 6.2 mi South 10.4 mph - N/A   Unknown
11:00 PM 49 °F - 37 °F 53% 29.88 in 28 mi South 11.2 mph - -  
11:25 PM 50.0 °F - 37.4 °F 62% 29.86 in 6.2 mi South 11.5 mph - N/A   Unknown
11:55 PM 48.2 °F - 37.4 °F 66% 29.86 in 6.2 mi South 11.5 mph - N/A   Unknown